Wahoo, NE

9:36 AM CDT on September 21, 2017 (GMT -0500)
Wahoo Municipal

Weather History for KAHQ - June, 2014

Change the Weather History Date:

Saturday, June 7, 2014

  Actual Average Record
Temperature  
Mean Temperature 67 °F -  
Max Temperature 75 °F 84 °F 98 °F (1981)
Min Temperature 58 °F 57 °F 45 °F (1983)
Cooling Degree Days 2    
Growing Degree Days 17 (Base 50)    
Moisture  
Dew Point 57 °F    
Average Humidity 72    
Maximum Humidity 85    
Minimum Humidity 50    
Precipitation  
Precipitation 0.02 in - - ()
Sea Level Pressure  
Sea Level Pressure 29.97 in    
Wind  
Wind Speed 10 mph (North)    
Max Wind Speed 24 mph    
Max Gust Speed 30 mph    
Visibility 10 miles    
Events Rain    
Averages and records for this station are not official NWS values.
T = Trace of Precipitation, MM = Missing Value Source: NWS Daily Summary

Daily Weather History Graph

Daily Weather History Graph

Search for Another Location

Airport or City:

Trip Planner

Search our weather history database for the weather conditions in past years. The results will help you decide how hot, cold, wet, or windy it might be!

Date:

Astronomy

Jun. 07, 2014 Rise Set
Actual Time 5:53 AM CDT 8:57 PM CDT
Civil Twilight 5:20 AM CDT 9:30 PM CDT
Nautical Twilight 4:37 AM CDT 10:13 PM CDT
Astronomical Twilight 3:47 AM CDT 11:03 PM CDT
Moon 3:12 PM CDT (6/7) 2:19 AM CDT (6/7)
Length of Visible Light 16h 10m
Length of Day
15h 03m
Waxing Gibbous, 68% of the Moon is Illuminated
Jun 7
Waxing Gibbous
Jun 12
Full
Jun 19
Last Quarter
Jun 27
New
Jul 5
First Quarter

Hourly Weather History & Observations

Time (CDT) Temp. Dew Point Humidity Pressure Visibility Wind Dir Wind Speed Gust Speed Precip Events Conditions
12:15 AM 70.9 °F 62.4 °F 75% 29.91 in 10.0 mi SE 6.9 mph - N/A   Clear
12:35 AM 70.7 °F 62.6 °F 75% 29.90 in 10.0 mi SE 8.1 mph - N/A   Clear
12:55 AM 70.0 °F 62.8 °F 78% 29.90 in 10.0 mi SSE 6.9 mph - N/A   Scattered Clouds
1:15 AM 69.8 °F 62.8 °F 78% 29.91 in 10.0 mi South 8.1 mph - N/A   Scattered Clouds
1:35 AM 69.3 °F 63.1 °F 81% 29.92 in 10.0 mi South 9.2 mph - N/A   Clear
1:55 AM 69.8 °F 63.0 °F 79% 29.92 in 10.0 mi South 8.1 mph - N/A   Scattered Clouds
2:15 AM 69.8 °F 62.6 °F 78% 29.92 in 10.0 mi SSE 8.1 mph - N/A   Scattered Clouds
2:35 AM 69.4 °F 62.2 °F 78% 29.91 in 10.0 mi SE 5.8 mph - N/A   Mostly Cloudy
2:55 AM 68.9 °F 62.2 °F 79% 29.92 in 10.0 mi SSE 5.8 mph - N/A   Scattered Clouds
3:15 AM 68.2 °F 62.4 °F 82% 29.92 in 10.0 mi Calm Calm - N/A   Clear
3:35 AM 67.5 °F 62.8 °F 85% 29.91 in 7.0 mi North 4.6 mph - N/A   Scattered Clouds
3:55 AM 67.5 °F 62.8 °F 85% 29.91 in 10.0 mi North 4.6 mph - N/A   Clear
4:15 AM 67.5 °F 63.0 °F 85% 29.90 in 7.0 mi North 6.9 mph - N/A   Clear
4:35 AM 67.3 °F 62.8 °F 85% 29.90 in 7.0 mi NNE 6.9 mph - N/A   Clear
4:55 AM 67.5 °F 62.1 °F 83% 29.90 in 10.0 mi North 11.5 mph - N/A   Clear
5:15 AM 66.0 °F 59.5 °F 80% 29.91 in 10.0 mi NNE 8.1 mph - N/A   Scattered Clouds
5:35 AM 65.8 °F 59.9 °F 81% 29.91 in 10.0 mi NNE 5.8 mph - N/A   Overcast
5:55 AM 65.8 °F 59.2 °F 79% 29.91 in 10.0 mi North 5.8 mph - N/A   Overcast
6:15 AM 65.7 °F 58.5 °F 78% 29.91 in 10.0 mi NNE 10.4 mph - N/A   Overcast
6:55 AM 64.8 °F 58.6 °F 81% 29.92 in 10.0 mi North 6.9 mph - N/A Rain Light Rain
7:15 AM 64.4 °F 59.0 °F 83% 29.93 in 10.0 mi North 6.9 mph - 0.01 in Rain Light Rain
7:35 AM 64.0 °F 58.6 °F 83% 29.93 in 10.0 mi North 6.9 mph - 0.02 in Rain Light Rain
7:55 AM 63.9 °F 58.6 °F 83% 29.93 in 10.0 mi North 8.1 mph - 0.02 in Rain Light Rain
8:35 AM 64.0 °F 58.5 °F 82% 29.95 in 10.0 mi NNW 8.1 mph - N/A   Overcast
8:55 AM 64.4 °F 58.8 °F 82% 29.95 in 10.0 mi NNW 10.4 mph - N/A   Overcast
9:15 AM 64.6 °F 59.5 °F 84% 29.94 in 10.0 mi NNW 15.0 mph - N/A   Overcast
9:35 AM 64.6 °F 59.7 °F 84% 29.94 in 10.0 mi NNW 15.0 mph 18.4 mph N/A   Overcast
9:55 AM 63.1 °F 57.9 °F 83% 29.94 in 10.0 mi NNW 18.4 mph 21.9 mph N/A   Overcast
10:15 AM 63.1 °F 56.8 °F 80% 29.94 in 10.0 mi NNW 20.7 mph 26.5 mph N/A   Overcast
10:35 AM 64.4 °F 56.1 °F 74% 29.95 in 10.0 mi NNW 24.2 mph 28.8 mph N/A   Overcast
10:55 AM 65.5 °F 56.5 °F 73% 29.95 in 10.0 mi NNW 19.6 mph 27.6 mph N/A   Overcast
11:15 AM 66.6 °F 57.0 °F 71% 29.96 in 10.0 mi North 19.6 mph 25.3 mph N/A   Mostly Cloudy
11:35 AM 66.6 °F 56.3 °F 69% 29.96 in 10.0 mi North 20.7 mph 25.3 mph N/A   Mostly Cloudy
12:15 PM 69.4 °F 56.1 °F 62% 29.97 in 10.0 mi North 19.6 mph 27.6 mph N/A   Mostly Cloudy
12:35 PM 69.8 °F 56.3 °F 62% 29.97 in 10.0 mi North 13.8 mph 20.7 mph N/A   Overcast
12:55 PM 71.1 °F 56.3 °F 60% 29.97 in 10.0 mi North 12.7 mph 21.9 mph N/A   Mostly Cloudy
1:15 PM 69.8 °F 56.3 °F 62% 29.97 in 10.0 mi North 13.8 mph 18.4 mph N/A   Overcast
1:35 PM 71.8 °F 56.8 °F 59% 29.97 in 10.0 mi North 11.5 mph 18.4 mph N/A   Overcast
1:55 PM 72.5 °F 56.7 °F 57% 29.96 in 10.0 mi NNE 12.7 mph 17.3 mph N/A   Overcast
2:15 PM 73.4 °F 56.3 °F 55% 29.96 in 10.0 mi North 12.7 mph 18.4 mph N/A   Mostly Cloudy
2:35 PM 73.2 °F 55.6 °F 54% 29.96 in 10.0 mi North 13.8 mph 20.7 mph N/A   Mostly Cloudy
2:55 PM 75.0 °F 55.4 °F 50% 29.96 in 10.0 mi NNE 12.7 mph 18.4 mph N/A   Mostly Cloudy
3:15 PM 73.0 °F 55.4 °F 54% 29.97 in 10.0 mi North 12.7 mph 19.6 mph N/A   Mostly Cloudy
3:35 PM 73.2 °F 54.9 °F 52% 29.97 in 10.0 mi North 13.8 mph 19.6 mph N/A   Mostly Cloudy
3:55 PM 71.8 °F 55.9 °F 57% 29.97 in 10.0 mi NNW 13.8 mph 21.9 mph N/A   Overcast
4:15 PM 71.6 °F 55.6 °F 57% 29.97 in 10.0 mi North 17.3 mph 20.7 mph N/A   Overcast
4:35 PM 71.4 °F 55.2 °F 57% 29.98 in 10.0 mi North 18.4 mph 21.9 mph N/A   Overcast
4:55 PM 69.4 °F 55.6 °F 61% 29.99 in 10.0 mi NNW 20.7 mph 29.9 mph N/A   Overcast
5:15 PM 68.4 °F 55.0 °F 62% 30.00 in 10.0 mi NNW 20.7 mph 27.6 mph N/A   Overcast
5:35 PM 68.7 °F 55.2 °F 62% 30.00 in 10.0 mi North 19.6 mph - N/A   Mostly Cloudy
5:55 PM 68.4 °F 54.7 °F 62% 30.00 in 10.0 mi North 20.7 mph 26.5 mph N/A   Mostly Cloudy
6:15 PM 67.3 °F 54.7 °F 64% 30.00 in 10.0 mi North 20.7 mph 27.6 mph N/A   Mostly Cloudy
6:35 PM 66.2 °F 54.1 °F 65% 30.00 in 10.0 mi North 19.6 mph 24.2 mph N/A   Mostly Cloudy
6:55 PM 65.5 °F 54.0 °F 66% 30.01 in 10.0 mi North 17.3 mph 24.2 mph N/A   Mostly Cloudy
7:15 PM 66.0 °F 54.0 °F 65% 30.01 in 10.0 mi North 15.0 mph - N/A   Scattered Clouds
7:35 PM 65.7 °F 53.8 °F 65% 30.02 in 10.0 mi North 16.1 mph - N/A   Clear
7:55 PM 65.3 °F 53.8 °F 66% 30.02 in 10.0 mi North 12.7 mph - N/A   Clear
8:15 PM 64.8 °F 54.3 °F 69% 30.02 in 10.0 mi North 8.1 mph - N/A   Clear
8:35 PM 64.8 °F 53.8 °F 68% 30.02 in 10.0 mi North 11.5 mph - N/A   Clear
8:55 PM 63.1 °F 53.6 °F 71% 30.03 in 10.0 mi North 12.7 mph 16.1 mph N/A   Clear
9:15 PM 62.6 °F 53.6 °F 72% 30.04 in 10.0 mi North 13.8 mph 18.4 mph N/A   Clear
9:35 PM 61.7 °F 53.6 °F 75% 30.04 in 10.0 mi North 9.2 mph - N/A   Clear
9:55 PM 61.2 °F 53.6 °F 76% 30.06 in 10.0 mi North 8.1 mph - N/A   Clear
10:15 PM 60.8 °F 53.8 °F 78% 30.05 in 10.0 mi North 8.1 mph - N/A   Clear
10:35 PM 60.3 °F 53.6 °F 79% 30.07 in 10.0 mi North 4.6 mph - N/A   Clear
10:55 PM 59.5 °F 53.8 °F 81% 30.07 in 10.0 mi North 5.8 mph - N/A   Clear
11:15 PM 59.4 °F 53.8 °F 82% 30.08 in 10.0 mi NNW 5.8 mph - N/A   Clear
11:35 PM 59.0 °F 53.6 °F 82% 30.07 in 10.0 mi NNW 5.8 mph - N/A   Clear
11:55 PM 58.6 °F 53.2 °F 82% 30.08 in 10.0 mi NNW 4.6 mph - N/A   Clear